Lufkin, TX

7:47 AM CDT on October 22, 2017 (GMT -0500)
Angelina County

Weather History for KLFK - March, 2013

Change the Weather History Date:

Sunday, March 10, 2013

  Actual Average Record
Temperature  
Mean Temperature 58 °F 58 °F  
Max Temperature 68 °F 70 °F 89 °F (1911)
Min Temperature 47 °F 47 °F 24 °F (1932)
Degree Days  
Heating Degree Days 7 8  
Month to date heating degree days 107 89  
Since 1 July heating degree days 1373 1723  
Cooling Degree Days 0 1  
Month to date cooling degree days 2 10  
Year to date cooling degree days 24 29  
Growing Degree Days 7 (Base 50)    
Moisture  
Dew Point 50 °F    
Average Humidity 61    
Maximum Humidity 81    
Minimum Humidity 40    
Precipitation  
Precipitation 1.11 in 0.11 in 2.04 in (2016)
Month to date precipitation 1.11 1.29  
Year to date precipitation 7.92 9.34  
Snow  
Snow 0.00 in - - ()
Month to date snowfall 0.0  
Since 1 July snowfall 0.0  
Snow Depth -    
Sea Level Pressure  
Sea Level Pressure 29.87 in    
Wind  
Wind Speed 8 mph (NW)    
Max Wind Speed 13 mph    
Max Gust Speed 22 mph    
Visibility 8 miles    
Events Rain    
T = Trace of Precipitation, MM = Missing Value Source: NWS Daily Summary

Daily Weather History Graph

Daily Weather History Graph

Search for Another Location

Airport or City:

Trip Planner

Search our weather history database for the weather conditions in past years. The results will help you decide how hot, cold, wet, or windy it might be!

Date:

Astronomy

Mar. 10, 2013 Rise Set
Actual Time 7:34 AM CDT 7:23 PM CDT
Civil Twilight 7:10 AM CDT 7:48 PM CDT
Nautical Twilight 6:42 AM CDT 8:16 PM CDT
Astronomical Twilight 6:14 AM CDT 8:44 PM CDT
Moon 6:32 AM CDT (3/10) 6:33 PM CDT (3/10)
Length of Visible Light 12h 37m
Length of Day
11h 49m
Waning Crescent, 2% of the Moon is Illuminated
Mar 10
Waning Crescent
Mar 11
New
Mar 19
First Quarter
Mar 27
Full
Apr 2
Last Quarter

Hourly Weather History & Observations

Time (CDT) Temp. Dew Point Humidity Pressure Visibility Wind Dir Wind Speed Gust Speed Precip Events Conditions
12:53 AM 66.9 °F 61.0 °F 81% 29.80 in 10.0 mi SE 9.2 mph - N/A   Overcast
1:53 AM 66.0 °F 61.0 °F 84% 29.80 in 9.0 mi SSE 3.5 mph - 0.00 in Rain Light Rain
4:39 AM 66.2 °F 62.6 °F 88% 29.75 in 6.0 mi South 9.2 mph - 0.02 in Rain Light Rain
5:06 AM 66.2 °F 62.6 °F 88% 29.73 in 9.0 mi SSE 11.5 mph - 0.00 in   Overcast
5:53 AM 66.9 °F 62.1 °F 84% 29.72 in 9.0 mi SSE 15.0 mph - 0.00 in   Overcast
6:01 AM 66.2 °F 62.6 °F 88% 29.73 in 9.0 mi SSE 12.7 mph - N/A   Overcast
7:15 AM 66.2 °F 62.6 °F 88% 29.72 in 2.5 mi SSE 12.7 mph 23.0 mph N/A Rain Heavy Rain
7:41 AM 59.0 °F 55.4 °F 88% 29.75 in 0.8 mi NW 24.2 mph 34.5 mph N/A Rain Heavy Rain
7:46 AM 57.2 °F 53.6 °F 88% 29.78 in 0.8 mi NW 17.3 mph 34.5 mph N/A Rain Heavy Rain
7:53 AM 57.0 °F 53.1 °F 87% 29.79 in 1.5 mi NW 23.0 mph 33.4 mph N/A Rain Heavy Rain
8:12 AM 55.4 °F 51.8 °F 88% 29.83 in 3.0 mi NNW 13.8 mph 29.9 mph 0.19 in Rain Heavy Rain
8:22 AM 55.4 °F 51.8 °F 88% 29.82 in 7.0 mi NNW 11.5 mph 26.5 mph 0.19 in Rain Light Rain
8:53 AM 55.9 °F 50.0 °F 80% 29.83 in 10.0 mi North 8.1 mph 17.3 mph 0.19 in   Overcast
9:53 AM 55.9 °F 50.0 °F 80% 29.88 in 6.0 mi North 5.8 mph - 0.02 in Rain Light Rain
10:53 AM 55.0 °F 50.0 °F 83% 29.88 in 10.0 mi Calm Calm - 0.00 in Rain Light Rain
11:53 AM 57.0 °F 51.1 °F 81% 29.90 in 10.0 mi East 4.6 mph - 0.04 in Rain Light Rain
12:53 PM 57.0 °F 52.0 °F 83% 29.90 in 10.0 mi ESE 3.5 mph - 0.02 in   Overcast
1:04 PM 57.2 °F 51.8 °F 82% 29.91 in 10.0 mi SE 3.5 mph - 0.00 in Rain Light Rain
1:53 PM 60.1 °F 52.0 °F 75% 29.90 in 10.0 mi Calm Calm - 0.00 in   Overcast
2:53 PM 61.0 °F 51.1 °F 70% 29.88 in 10.0 mi Calm Calm - N/A   Overcast
3:01 PM 62.6 °F 51.8 °F 68% 29.89 in 10.0 mi WSW 3.5 mph - N/A   Mostly Cloudy
3:23 PM 64.4 °F 51.8 °F 64% 29.88 in 10.0 mi SW 6.9 mph - N/A   Overcast
3:53 PM 64.9 °F 51.1 °F 61% 29.88 in 10.0 mi NW 9.2 mph - N/A   Overcast
4:53 PM 66.0 °F 41.0 °F 40% 29.87 in 10.0 mi WNW 10.4 mph - N/A   Clear
5:53 PM 64.9 °F 39.9 °F 40% 29.88 in 10.0 mi WNW 9.2 mph 17.3 mph N/A   Clear
6:53 PM 61.0 °F 37.9 °F 42% 29.90 in 10.0 mi NW 12.7 mph 21.9 mph N/A   Clear
7:53 PM 57.0 °F 37.9 °F 49% 29.94 in 10.0 mi NW 9.2 mph 17.3 mph N/A   Clear
8:53 PM 53.1 °F 36.0 °F 52% 29.99 in 10.0 mi NW 9.2 mph 19.6 mph N/A   Clear
9:53 PM 51.1 °F 35.1 °F 54% 30.03 in 10.0 mi NW 8.1 mph - N/A   Clear
10:53 PM 48.9 °F 34.0 °F 56% 30.04 in 10.0 mi NNW 6.9 mph - N/A   Clear
11:53 PM 48.0 °F 33.1 °F 56% 30.06 in 10.0 mi NW 9.2 mph - N/A   Clear
12:53 AM 46.9 °F 32.0 °F 56% 30.08 in 10.0 mi NW 5.8 mph - N/A   Clear